TimeMDT,TemperatureF,Dew PointF,Humidity,Sea Level PressureIn,VisibilityMPH,Wind Direction,Wind SpeedMPH,Gust SpeedMPH,PrecipitationIn,Events,Conditions,WindDirDegrees,DateUTC
12:53 AM,39.9,24.1,53,30.00,10.0,Calm,Calm,-,N/A,,Clear,0,2013-09-30 06:53:00
1:53 AM,37.9,24.1,57,30.01,10.0,North,3.5,-,N/A,,Clear,350,2013-09-30 07:53:00
2:53 AM,35.1,24.1,64,30.01,10.0,Calm,Calm,-,N/A,,Clear,0,2013-09-30 08:53:00
3:53 AM,33.1,25.0,72,30.01,10.0,Calm,Calm,-,N/A,,Clear,0,2013-09-30 09:53:00
4:53 AM,33.1,24.1,70,30.00,10.0,Calm,Calm,-,N/A,,Clear,0,2013-09-30 10:53:00
5:53 AM,32.0,25.0,75,30.02,10.0,Calm,Calm,-,N/A,,Clear,0,2013-09-30 11:53:00
7:53 AM,33.1,26.1,75,30.07,10.0,Calm,Calm,-,N/A,,Clear,0,2013-09-30 13:53:00
8:53 AM,44.1,27.0,51,30.06,10.0,Calm,Calm,-,N/A,,Clear,0,2013-09-30 14:53:00
9:53 AM,55.0,27.0,34,30.03,10.0,Calm,Calm,-,N/A,,Clear,0,2013-09-30 15:53:00
10:53 AM,64.0,26.1,24,30.01,10.0,Calm,Calm,-,N/A,,Clear,0,2013-09-30 16:53:00
11:53 AM,70.0,24.1,18,29.97,10.0,West,6.9,-,N/A,,Clear,270,2013-09-30 17:53:00
12:53 PM,71.1,18.0,13,29.94,10.0,NW,9.2,-,N/A,,Clear,310,2013-09-30 18:53:00
1:53 PM,72.0,16.0,12,29.93,10.0,WSW,10.4,-,N/A,,Clear,250,2013-09-30 19:53:00
2:53 PM,73.9,16.0,11,29.91,10.0,WNW,9.2,17.3,N/A,,Clear,300,2013-09-30 20:53:00
3:53 PM,75.0,16.0,11,29.90,10.0,NW,10.4,16.1,N/A,,Clear,320,2013-09-30 21:53:00
4:53 PM,73.9,16.0,11,29.89,10.0,WNW,9.2,-,N/A,,Clear,300,2013-09-30 22:53:00
5:53 PM,73.0,12.0,10,29.90,10.0,West,6.9,18.4,N/A,,Clear,260,2013-09-30 23:53:00
6:53 PM,66.0,16.0,15,29.94,10.0,West,6.9,-,N/A,,Clear,260,2013-10-01 00:53:00
7:53 PM,57.9,17.1,20,29.97,10.0,SSW,3.5,-,N/A,,Clear,210,2013-10-01 01:53:00
8:53 PM,54.0,19.0,25,29.96,10.0,Calm,Calm,-,N/A,,Clear,0,2013-10-01 02:53:00
9:53 PM,46.0,21.9,39,29.96,10.0,Calm,Calm,-,N/A,,Clear,0,2013-10-01 03:53:00
10:53 PM,42.1,23.0,47,29.94,10.0,Calm,Calm,-,N/A,,Clear,0,2013-10-01 04:53:00
11:53 PM,37.9,23.0,55,29.93,10.0,Calm,Calm,-,N/A,,Clear,0,2013-10-01 05:53:00